Location: Trout Lake
(45.9980°N, 121.5270°W)
Time: 21:00:07
(UTC-08:00)

Meteor 1-25 Rocket - Pass Details

Date: 06 December 2023
Orbit: 838 x 889 km, 81.2° (Epoch: 22 February)

Event Time Altitude Azimuth Distance (km) Brightness Sun altitude
Rises 17:58:29 0° 347° (NNW) 3,445 7.4 -16.2°
Reaches altitude 10° 18:00:57 10° 345° (NNW) 2,497 6.6 -16.6°
Maximum altitude 18:06:34 70° 263° (W) 900 4.5 -17.6°
Drops below altitude 10° 18:12:05 10° 180° (S) 2,452 6.8 -18.5°
Sets 18:14:29 0° 178° (S) 3,379 7.5 -18.9°
